| time (UTC) | temp F | wind direction | speed MPH | gust MPH | rain 1hr in | rain 24hr in | rain mn in | humidity % | barometer mb |
| 20260504000111 | 74 | 176 | 4.0 | 10.0 | 0.00 | 0.00 | 0.00 | 38 | 1017.9 |
| 20260503234551 | 75 | 191 | 3.0 | 10.0 | 0.00 | 0.00 | 0.00 | 37 | 1018.1 |
| 20260503233041 | 76 | 198 | 5.0 | 12.0 | 0.00 | 0.00 | 0.00 | 35 | 1017.9 |
| 20260503231540 | 76 | 136 | 6.0 | 16.0 | 0.00 | 0.00 | 0.00 | 37 | 1018.1 |
| 20260503230040 | 76 | 111 | 5.0 | 10.0 | 0.00 | 0.00 | 0.00 | 35 | 1018.0 |
| 20260503224539 | 75 | 149 | 4.0 | 13.0 | 0.00 | 0.00 | 0.00 | 35 | 1018.0 |
| 20260503223040 | 75 | 111 | 5.0 | 17.0 | 0.00 | 0.00 | 0.00 | 36 | 1018.3 |
| 20260503221546 | 76 | 150 | 8.0 | 15.0 | 0.00 | 0.00 | 0.00 | 35 | 1018.6 |
| 20260503220034 | 77 | 140 | 4.0 | 14.0 | 0.00 | 0.00 | 0.00 | 34 | 1018.7 |
| 20260503214531 | 77 | 168 | 4.0 | 15.0 | 0.00 | 0.00 | 0.00 | 35 | 1019.0 |
| 20260503213031 | 76 | 112 | 6.0 | 16.0 | 0.00 | 0.00 | 0.00 | 33 | 1019.1 |
| 20260503211527 | 78 | 152 | 9.0 | 14.0 | 0.00 | 0.00 | 0.00 | 33 | 1019.4 |
| 20260503210025 | 77 | 213 | 7.0 | 14.0 | 0.00 | 0.00 | 0.00 | 31 | 1019.9 |
| 20260503204522 | 77 | 134 | 4.0 | 15.0 | 0.00 | 0.00 | 0.00 | 33 | 1020.1 |
| 20260503203028 | 76 | 135 | 7.0 | 15.0 | 0.00 | 0.00 | 0.00 | 32 | 1020.5 |
| 20260503201518 | 77 | 84 | 6.0 | 14.0 | 0.00 | 0.00 | 0.00 | 32 | 1020.7 |
| 20260503200015 | 76 | 214 | 7.0 | 12.0 | 0.00 | 0.00 | 0.00 | 34 | 1020.8 |
| 20260503194515 | 76 | 160 | 4.0 | 15.0 | 0.00 | 0.00 | 0.00 | 33 | 1021.1 |
| 20260503193012 | 76 | 156 | 6.0 | 15.0 | 0.00 | 0.00 | 0.00 | 28 | 1021.3 |
| 20260503191509 | 76 | 115 | 6.0 | 14.0 | 0.00 | 0.00 | 0.00 | 33 | 1021.5 |
| 20260503190010 | 75 | 209 | 5.0 | 14.0 | 0.00 | 0.00 | 0.00 | 32 | 1021.7 |
| 20260503184507 | 76 | 83 | 6.0 | 13.0 | 0.00 | 0.00 | 0.00 | 34 | 1022.0 |
| 20260503183002 | 76 | 205 | 5.0 | 14.0 | 0.00 | 0.00 | 0.00 | 32 | 1022.2 |
| 20260503181503 | 76 | 198 | 7.0 | 16.0 | 0.00 | 0.00 | 0.00 | 35 | 1022.5 |
| 20260503180000 | 75 | 158 | 6.0 | 15.0 | 0.00 | 0.00 | 0.00 | 30 | 1022.8 |
| 20260503174601 | 75 | 158 | 5.0 | 11.0 | 0.00 | 0.00 | 0.00 | 36 | 1023.0 |
| 20260503173102 | 75 | 199 | 4.0 | 11.0 | 0.00 | 0.00 | 0.00 | 37 | 1023.2 |
| 20260503171600 | 75 | 152 | 6.0 | 11.0 | 0.00 | 0.00 | 0.00 | 35 | 1023.5 |
| 20260503081554 | 59 | 252 | 2.0 | 4.0 | 0.00 | 0.00 | 0.00 | 62 | 1022.4 |
| 20260503071555 | 61 | 239 | 1.0 | 3.0 | 0.00 | 0.00 | 0.00 | 59 | 1022.9 |
| 20260503054537 | 63 | 217 | 1.0 | 2.0 | 0.00 | 0.00 | 0.00 | 53 | 1023.1 |
| 20260503053039 | 63 | 236 | 0.0 | 1.0 | 0.00 | 0.00 | 0.00 | 55 | 1023.1 |
| 20260503051531 | 63 | 216 | 1.0 | 2.0 | 0.00 | 0.00 | 0.00 | 54 | 1023.1 |
| 20260503050029 | 63 | 216 | 1.0 | 2.0 | 0.00 | 0.00 | 0.00 | 55 | 1023.2 |
| 20260503044531 | 63 | 234 | 1.0 | 2.0 | 0.00 | 0.00 | 0.00 | 55 | 1023.2 |
| 20260503043028 | 63 | 217 | 2.0 | 2.0 | 0.00 | 0.00 | 0.00 | 55 | 1023.3 |
| 20260503041528 | 64 | 232 | 1.0 | 2.0 | 0.00 | 0.00 | 0.00 | 53 | 1023.2 |
| 20260503040032 | 64 | 169 | 1.0 | 2.0 | 0.00 | 0.00 | 0.00 | 53 | 1022.9 |
| 20260503034527 | 64 | 169 | 1.0 | 2.0 | 0.00 | 0.00 | 0.00 | 53 | 1023.0 |
| 20260503033048 | 64 | 159 | 0.0 | 2.0 | 0.00 | 0.00 | 0.00 | 52 | 1022.9 |
| 20260503031534 | 65 | 132 | 1.0 | 2.0 | 0.00 | 0.00 | 0.00 | 51 | 1022.7 |
| 20260503030026 | 65 | 111 | 1.0 | 4.0 | 0.00 | 0.00 | 0.00 | 51 | 1022.6 |
| 20260503024524 | 65 | 101 | 2.0 | 4.0 | 0.00 | 0.00 | 0.00 | 51 | 1022.6 |
| 20260503023040 | 65 | 90 | 2.0 | 4.0 | 0.00 | 0.00 | 0.00 | 51 | 1022.3 |
| 20260503021523 | 65 | 94 | 2.0 | 5.0 | 0.00 | 0.00 | 0.00 | 51 | 1022.0 |
| 20260503020022 | 65 | 94 | 3.0 | 4.0 | 0.00 | 0.00 | 0.00 | 51 | 1021.8 |
| 20260503014522 | 66 | 77 | 2.0 | 4.0 | 0.00 | 0.00 | 0.00 | 50 | 1021.7 |
| 20260503013021 | 66 | 79 | 2.0 | 4.0 | 0.00 | 0.00 | 0.00 | 48 | 1021.8 |
| 20260503011520 | 67 | 76 | 2.0 | 3.0 | 0.00 | 0.00 | 0.00 | 47 | 1021.7 |
| 20260503010029 | 69 | 70 | 2.0 | 3.0 | 0.00 | 0.00 | 0.00 | 45 | 1021.5 |
| 20260503004519 | 70 | 63 | 2.0 | 3.0 | 0.00 | 0.00 | 0.00 | 43 | 1021.5 |
| 20260503003019 | 70 | 32 | 3.0 | 6.0 | 0.00 | 0.00 | 0.00 | 42 | 1021.5 |
| 20260503001521 | 71 | 31 | 3.0 | 8.0 | 0.00 | 0.00 | 0.00 | 38 | 1021.4 |